Temp
4 4 3 3 3 3 2 1 1 1 2 1 1 1 1 1 1 1 1 1 1 1 1 1 1 1 1 1 1 0 0 0 0 0 0 0 0 0 0 0 0 1 1
3 3 3 3 3 2 2 1 1 1 1 1 1 1 1 1 0 0 0 0 0 0 0 0 0 0 0 1 0 0 0 -0 -1 -1 -1 -1 -0 -0 -0 -1 -0 -0 -0
3 3 3 2 2 2 1 0 0 0 0 0 0 0 -0 -0 -0 -0 -0 -0 -0 -0 -0 -1 -1 -1 -0 -0 -0 -0 -0 -0 -1 -1 -1 -1 -1 -1 -1 -1 -1 -1 -1
2 2 2 2 2 1 1 0 -0 -1 -1 -0 -1 -1 -1 -1 -1 -1 -1 -1 -1 -1 -1 -1 -1 -1 -1 -1 -1 -1 -1 -1 -1 -1 -1 -2 -2 -2 -2 -2 -3 -3 -3
1 2 2 2 1 1 0 -0 -1 -1 -1 -1 -1 -1 -1 -2 -2 -2 -2 -2 -2 -2 -2 -2 -2 -2 -2 -2 -2 -2 -2 -2 -2 -2 -3 -3 -3 -3 -3 -3 -3 -3 -3
1 1 1 1 1 1 0 -0 -1 -1 -1 -2 -2 -2 -2 -2 -2 -3 -3 -2 -2 -2 -2 -2 -3 -3 -3 -3 -3 -3 -3 -3 -3 -4 -4 -4 -4 -4 -4 -4 -4 -4 -4
0 -0 0 0 0 0 0 -0 -1 -1 -2 -2 -2 -3 -3 -3 -3 -3 -3 -3 -3 -3 -3 -3 -3 -3 -3 -4 -4 -4 -4 -4 -5 -4 -5 -5 -5 -5 -5 -5 -5 -5 -5
-1 -1 -1 -1 -1 -1 -0 -1 -1 -2 -2 -2 -3 -3 -3 -3 -3 -3 -3 -4 -4 -4 -4 -4 -4 -4 -5 -5 -5 -5 -5 -6 -6 -5 -5 -6 -6 -6 -6 -6 -6 -6 -6
-0 -1 -2 -2 -1 -1 -1 -1 -1 -2 -2 -2 -3 -3 -3 -3 -3 -3 -3 -4 -4 -5 -5 -5 -5 -5 -5 -5 -5 -5 -6 -6 -6 -6 -6 -6 -6 -6 -7 -6 -7 -7 -7
-1 -1 -1 -2 -2 -2 -2 -2 -2 -2 -2 -3 -3 -3 -4 -3 -4 -4 -4 -4 -5 -5 -5 -5 -5 -6 -6 -6 -6 -6 -6 -7 -7 -6 -6 -6 -7 -7 -7 -8 -8 -8 -8
-1 -1 -1 -2 -3 -3 -3 -2 -2 -2 -2 -3 -3 -4 -4 -4 -4 -4 -4 -4 -5 -5 -5 -6 -6 -6 -6 -6 -6 -6 -7 -7 -7 -7 -7 -7 -8 -8 -9 -9 -9 -10 -10
-2 -2 -2 -2 -3 -3 -3 -3 -3 -3 -3 -3 -4 -4 -4 -4 -4 -5 -5 -5 -5 -5 -6 -6 -6 -7 -7 -7 -7 -7 -7 -8 -8 -8 -8 -9 -9 -10 -10 -10 -10 -11 -11
-4 -4 -4 -4 -4 -4 -4 -5 -5 -4 -4 -4 -4 -4 -5 -5 -5 -5 -6 -6 -6 -6 -6 -7 -7 -8 -8 -8 -8 -8 -8 -9 -9 -10 -10 -10 -10 -11 -11 -11 -12 -12 -12
-5 -5 -5 -5 -5 -5 -5 -5 -5 -5 -6 -6 -5 -5 -5 -5 -6 -6 -6 -7 -7 -7 -7 -8 -8 -8 -8 -9 -9 -10 -10 -10 -10 -11 -11 -11 -12 -12 -12 -13 -13 -13 -13
-6 -6 -6 -6 -6 -6 -6 -6 -6 -6 -6 -6 -7 -7 -7 -7 -8 -8 -8 -8 -9 -9 -9 -9 -9 -9 -9 -10 -11 -11 -12 -12 -12 -12 -12 -12 -12 -13 -13 -14 -14 -14 -14
-7 -7 -8 -8 -8 -8 -8 -7 -8 -8 -8 -8 -8 -8 -8 -9 -9 -9 -9 -9 -9 -10 -10 -10 -10 -10 -11 -12 -12 -12 -12 -13 -13 -13 -14 -14 -14 -15 -15 -15 -15 -16 -16
-9 -9 -9 -9 -9 -9 -9 -9 -9 -9 -9 -9 -9 -9 -9 -10 -10 -10 -10 -10 -11 -11 -11 -12 -12 -13 -13 -13 -13 -13 -13 -14 -14 -15 -15 -15 -16 -16 -16 -16 -16 -16 -16
-10 -10 -10 -9 -9 -9 -9 -10 -10 -10 -10 -10 -10 -10 -11 -11 -12 -12 -12 -12 -12 -12 -13 -13 -13 -14 -14 -14 -14 -15 -15 -16 -16 -16 -16 -17 -17 -17 -17 -17 -17 -17 -17
-11 -11 -11 -11 -11 -11 -11 -11 -12 -12 -12 -12 -12 -13 -13 -13 -13 -13 -13 -13 -14 -14 -14 -15 -15 -15 -15 -16 -16 -16 -17 -17 -17 -17 -17 -18 -17 -18 -18 -18 -18 -18 -18
-13 -13 -13 -13 -13 -13 -13 -13 -13 -13 -13 -14 -14 -14 -14 -14 -14 -14 -15 -15 -15 -15 -16 -16 -16 -16 -17 -17 -18 -18 -18 -18 -18 -18 -18 -18 -18 -18 -18 -19 -19 -19 -20
-14 -14 -14 -14 -14 -14 -14 -14 -14 -15 -15 -15 -15 -15 -15 -15 -15 -16 -16 -16 -17 -17 -18 -18 -18 -18 -18 -18 -18 -19 -19 -18 -19 -19 -19 -19 -19 -19 -20 -21 -21 -22 -22
-15 -15 -15 -15 -15 -15 -15 -15 -15 -16 -16 -16 -16 -17 -17 -17 -17 -17 -17 -18 -19 -20 -19 -19 -19 -19 -19 -19 -19 -19 -19 -19 -19 -20 -20 -21 -21 -22 -23 -23 -23 -23 -23
-16 -16 -16 -16 -16 -16 -17 -17 -18 -18 -18 -18 -18 -18 -18 -18 -19 -19 -20 -20 -20 -20 -20 -20 -19 -19 -20 -20 -20 -19 -19 -20 -21 -22 -23 -23 -23 -23 -23 -23 -23 -23 -23
-17 -17 -17 -18 -18 -18 -18 -18 -19 -19 -19 -19 -19 -20 -20 -21 -21 -21 -20 -20 -20 -20 -20 -20 -20 -20 -20 -20 -20 -20 -21 -23 -23 -23 -23 -23 -23 -23 -23 -23 -23 -23 -23
-18 -19 -19 -19 -20 -20 -20 -20 -20 -21 -21 -21 -21 -22 -22 -21 -21 -21 -21 -21 -21 -21 -21 -21 -20 -20 -20 -21 -22 -23 -23 -23 -23 -23 -23 -24 -23 -23 -23 -23 -23 -23 -23
-20 -20 -20 -21 -21 -21 -21 -22 -22 -22 -22 -23 -23 -23 -22 -22 -21 -21 -21 -21 -21 -21 -21 -21 -21 -21 -22 -23 -23 -23 -23 -23 -24 -24 -24 -24 -24 -23 -23 -23 -24 -24 -24
Height
3125 3126 3127 3128 3130 3131 3132 3134 3136 3137 3137 3138 3138 3139 3140 3140 3140 3141 3142 3143 3143 3144 3144 3145 3145 3145 3145 3145 3145 3144 3144 3144 3143 3143 3142 3141 3141 3140 3139 3138 3137 3135 3135
3119 3120 3120 3121 3122 3124 3126 3128 3130 3131 3132 3133 3134 3134 3134 3135 3135 3136 3137 3137 3138 3139 3139 3139 3140 3140 3140 3140 3139 3139 3139 3139 3138 3137 3136 3135 3135 3135 3134 3133 3132 3130 3129
3113 3113 3114 3114 3115 3118 3119 3121 3123 3125 3126 3127 3128 3128 3128 3129 3130 3130 3130 3131 3132 3133 3133 3133 3133 3134 3133 3133 3133 3132 3132 3132 3132 3131 3130 3129 3129 3129 3128 3127 3126 3125 3123
3105 3106 3107 3108 3109 3111 3112 3113 3116 3117 3119 3121 3121 3122 3122 3123 3124 3124 3124 3125 3125 3126 3126 3127 3127 3127 3126 3126 3126 3125 3125 3125 3125 3124 3123 3122 3122 3121 3120 3120 3120 3117 3116
3096 3097 3099 3099 3100 3101 3103 3105 3107 3109 3111 3113 3114 3115 3116 3116 3117 3117 3117 3118 3119 3119 3119 3119 3119 3119 3119 3118 3118 3118 3117 3117 3116 3116 3115 3114 3113 3113 3112 3111 3110 3109 3107
3084 3088 3089 3090 3091 3092 3093 3095 3097 3100 3103 3104 3106 3107 3108 3109 3109 3109 3109 3110 3110 3111 3111 3110 3110 3110 3110 3109 3109 3109 3109 3108 3107 3107 3105 3104 3103 3103 3102 3100 3098 3097 3097
3072 3074 3076 3078 3080 3082 3084 3085 3087 3090 3093 3095 3097 3098 3099 3100 3100 3100 3100 3101 3101 3101 3101 3101 3101 3101 3100 3100 3099 3099 3098 3098 3097 3096 3095 3093 3093 3091 3090 3088 3086 3085 3083
3061 3062 3064 3067 3069 3070 3072 3074 3077 3079 3082 3084 3086 3088 3088 3090 3090 3090 3090 3090 3090 3090 3091 3090 3090 3090 3090 3089 3088 3088 3087 3087 3086 3085 3085 3084 3082 3081 3078 3076 3075 3073 3072
3049 3050 3053 3054 3056 3058 3060 3063 3065 3067 3069 3072 3074 3076 3077 3080 3079 3079 3079 3078 3079 3079 3079 3078 3078 3078 3078 3077 3077 3077 3076 3077 3074 3073 3073 3073 3071 3069 3067 3064 3062 3059 3057
3037 3038 3039 3041 3044 3046 3049 3051 3053 3054 3057 3059 3061 3064 3066 3067 3069 3068 3067 3066 3066 3068 3067 3067 3067 3067 3066 3065 3063 3064 3065 3065 3062 3062 3061 3059 3057 3056 3054 3051 3048 3046 3043
3028 3028 3028 3030 3032 3034 3036 3038 3041 3042 3043 3047 3050 3052 3054 3054 3056 3054 3053 3052 3053 3052 3053 3053 3053 3052 3052 3052 3051 3051 3052 3052 3051 3049 3048 3046 3045 3043 3041 3038 3035 3032 3029
3019 3020 3020 3021 3021 3023 3024 3026 3029 3031 3032 3034 3036 3038 3040 3041 3041 3040 3039 3037 3038 3039 3040 3040 3040 3039 3039 3039 3039 3039 3039 3037 3036 3035 3033 3032 3030 3028 3026 3023 3020 3019 3016
3010 3011 3011 3012 3013 3014 3015 3016 3018 3019 3021 3023 3023 3024 3026 3026 3025 3025 3024 3024 3023 3025 3026 3025 3025 3026 3026 3025 3025 3024 3023 3022 3021 3020 3019 3017 3015 3013 3011 3009 3007 3005 3004
3002 3003 3003 3004 3004 3005 3005 3007 3008 3008 3009 3010 3010 3011 3011 3011 3012 3012 3011 3011 3010 3010 3011 3012 3012 3012 3011 3011 3010 3009 3007 3006 3004 3003 3003 3001 3000 2998 2996 2993 2992 2989 2987
2994 2994 2994 2995 2996 2996 2996 2996 2997 2997 2998 2998 2999 2999 2999 2999 2999 2999 2999 2999 2999 2998 2998 2998 2998 2998 2996 2995 2994 2994 2993 2992 2990 2989 2987 2985 2984 2983 2982 2978 2975 2973 2972
2983 2983 2984 2984 2985 2986 2987 2986 2986 2986 2986 2986 2986 2986 2986 2986 2985 2985 2985 2985 2985 2984 2982 2983 2982 2982 2981 2980 2979 2979 2978 2977 2976 2975 2972 2970 2969 2967 2965 2964 2960 2957 2956
2971 2971 2972 2972 2972 2974 2975 2974 2973 2973 2972 2972 2972 2972 2972 2972 2971 2971 2970 2970 2969 2969 2968 2968 2968 2966 2965 2965 2965 2964 2962 2962 2960 2959 2958 2957 2955 2953 2950 2949 2945 2942 2941
2958 2959 2959 2959 2960 2960 2959 2960 2959 2959 2958 2958 2957 2957 2956 2956 2957 2957 2957 2955 2956 2955 2955 2954 2953 2953 2952 2950 2950 2949 2948 2947 2945 2946 2944 2943 2941 2938 2936 2933 2931 2929 2927
2944 2945 2944 2944 2945 2945 2945 2945 2944 2944 2943 2943 2942 2942 2941 2941 2942 2943 2943 2943 2943 2942 2940 2940 2940 2939 2937 2937 2937 2936 2934 2933 2931 2930 2930 2928 2926 2923 2921 2918 2915 2913 2910
2931 2930 2930 2930 2931 2931 2930 2931 2930 2929 2929 2929 2928 2927 2927 2927 2927 2927 2928 2928 2928 2928 2928 2927 2925 2924 2925 2923 2922 2922 2921 2919 2917 2916 2914 2912 2911 2907 2904 2902 2899 2895 2893
2918 2917 2918 2917 2917 2917 2917 2916 2916 2915 2915 2915 2914 2912 2912 2912 2913 2913 2913 2913 2912 2913 2914 2913 2913 2913 2913 2911 2910 2909 2908 2906 2904 2902 2900 2898 2893 2890 2887 2885 2882 2881 2879
2904 2903 2903 2903 2903 2902 2902 2901 2900 2900 2900 2899 2898 2898 2897 2898 2900 2900 2899 2899 2900 2900 2901 2902 2901 2901 2900 2898 2896 2895 2894 2892 2889 2886 2884 2881 2877 2876 2875 2874 2873 2872 2870
2889 2888 2887 2888 2887 2887 2887 2887 2886 2886 2886 2885 2885 2884 2884 2885 2886 2886 2887 2888 2889 2889 2889 2889 2888 2888 2887 2884 2883 2881 2879 2877 2874 2871 2870 2868 2867 2867 2866 2865 2864 2862 2860
2873 2873 2872 2873 2872 2872 2872 2872 2872 2872 2871 2872 2871 2871 2872 2873 2874 2876 2876 2876 2876 2876 2876 2875 2875 2873 2871 2869 2867 2865 2863 2862 2860 2860 2858 2857 2857 2857 2855 2854 2853 2851 2849
2859 2858 2858 2858 2857 2857 2858 2858 2858 2858 2858 2858 2859 2861 2862 2863 2864 2865 2865 2864 2864 2863 2863 2861 2860 2859 2857 2854 2852 2851 2851 2850 2849 2848 2847 2845 2845 2845 2843 2841 2841 2839 2837
2844 2845 2845 2844 2844 2845 2845 2845 2846 2847 2847 2848 2850 2851 2852 2852 2853 2853 2852 2851 2851 2849 2848 2847 2845 2844 2843 2841 2841 2841 2840 2839 2837 2837 2833 2831 2831 2831 2829 2827 2826 2824 2824
Wind_Speed
22 24 22 22 23 26 26 24 22 21 20 19 19 19 20 21 21 20 19 18 18 16 15 14 13 12 11 10 9 9 9 9 10 10 9 9 10 12 13 14 16 18 19
23 23 23 24 25 27 28 26 24 23 21 20 20 21 21 21 21 21 21 21 20 19 18 18 17 16 15 14 13 13 12 12 12 12 13 14 15 16 18 19 21 22 22
23 24 26 27 27 28 30 29 26 26 23 22 21 22 22 22 21 22 23 23 22 22 21 20 20 19 19 19 18 17 17 17 17 17 17 18 20 20 22 23 24 24 25
29 30 29 28 27 28 31 32 30 29 26 24 23 22 22 22 23 24 24 24 25 24 24 24 23 23 23 22 22 22 21 21 22 22 22 24 24 25 25 26 26 27 28
37 35 30 30 30 31 33 35 35 33 30 28 26 23 23 23 24 26 27 28 27 28 27 27 26 26 26 26 26 25 25 25 25 26 26 27 28 29 30 31 31 30 31
44 42 41 37 33 33 34 37 39 38 35 33 30 27 25 24 26 28 30 31 32 31 31 30 30 30 30 30 30 29 29 29 29 28 29 30 30 31 32 33 35 36 34
49 49 47 43 42 38 36 38 41 42 41 39 36 34 30 29 31 33 35 36 37 36 36 35 35 34 34 34 33 32 32 32 32 33 32 34 33 34 35 36 37 39 40
45 47 48 45 44 43 42 41 42 44 46 45 41 40 36 33 35 37 40 41 42 42 41 40 39 38 37 36 37 37 36 35 35 36 36 36 37 38 40 42 41 42 42
42 44 47 48 47 45 43 43 44 45 48 47 46 44 40 38 39 40 43 47 47 47 46 46 43 41 40 42 42 40 40 38 40 41 40 40 41 43 44 45 46 47 48
34 35 39 44 47 48 47 44 45 46 48 50 50 47 44 43 42 44 46 49 50 48 49 48 48 45 44 45 46 44 43 40 43 44 45 46 47 47 48 48 49 51 52
28 30 34 36 40 43 45 48 46 48 52 52 52 49 47 48 46 49 53 53 49 48 48 47 48 48 48 46 45 45 43 44 46 48 49 50 51 51 51 51 52 53 53
28 27 30 34 36 39 41 43 45 47 52 53 55 56 56 56 57 56 52 50 48 46 46 47 47 48 45 44 45 46 47 48 49 50 51 52 53 52 52 52 52 51 50
28 28 27 28 32 35 36 37 40 43 48 54 57 59 59 57 53 49 46 46 48 47 45 45 44 43 45 47 48 50 51 51 50 51 51 51 51 51 51 51 51 52 52
30 32 33 33 30 29 31 34 37 39 41 44 45 45 44 43 42 42 43 42 43 43 44 43 44 47 48 50 51 50 48 49 50 51 51 50 50 50 50 50 50 50 51
36 35 34 35 35 35 35 35 35 36 37 38 39 40 40 40 38 39 40 41 41 43 46 50 53 53 51 50 48 48 48 48 49 49 50 51 52 51 49 49 49 50 51
40 40 40 39 39 39 41 41 40 40 41 41 42 44 45 46 48 48 48 49 50 50 50 49 48 48 49 48 48 48 49 48 48 49 49 48 48 48 49 49 48 48 48
33 34 34 35 36 37 39 39 39 40 40 42 42 42 43 45 46 46 48 48 48 49 49 47 47 47 46 46 47 47 48 47 46 46 45 45 46 47 47 47 48 49 50
42 41 40 40 40 41 42 42 42 42 42 43 44 45 45 45 45 45 47 48 48 48 48 47 47 45 45 46 46 45 43 43 43 43 44 43 44 46 47 49 50 52 53
43 43 43 43 45 45 45 44 42 41 41 42 43 44 44 44 45 46 46 47 46 45 45 46 46 46 45 43 42 41 40 40 40 42 43 45 46 49 51 53 54 56 57
44 44 45 45 45 45 44 44 44 43 44 45 45 45 46 46 45 45 45 44 44 44 44 43 42 42 40 39 38 39 39 40 42 44 46 48 51 53 55 56 56 55 54
47 47 47 48 48 48 49 50 50 49 47 47 48 48 48 48 46 45 45 45 44 42 40 39 38 37 37 38 39 40 41 43 45 48 50 50 51 51 48 45 43 41 40
48 48 48 48 49 49 50 50 49 48 46 45 46 46 46 46 44 43 40 38 36 36 36 37 37 37 37 38 40 42 45 46 47 47 45 43 40 37 33 32 31 30 31
49 49 49 48 48 48 47 46 44 43 43 43 42 42 42 39 36 33 32 33 35 35 36 37 37 38 39 41 44 46 47 45 39 36 33 32 31 31 32 34 34 34 35
47 47 46 46 46 45 44 43 43 43 42 41 39 36 33 31 31 32 32 34 35 36 37 38 39 41 42 45 47 46 40 33 31 31 31 32 35 36 37 38 37 37 38
43 43 44 43 42 42 42 42 42 40 39 36 31 30 30 30 31 33 34 35 37 37 38 40 42 43 45 44 41 36 32 32 34 34 34 36 36 38 41 44 43 43 42
40 40 40 39 38 37 37 37 37 35 31 28 28 29 30 31 33 35 35 36 37 39 41 42 42 40 37 35 33 33 35 37 38 39 41 44 45 46 46 46 45 44 42
Wind_Direction
262 270 267 261 258 252 248 249 254 258 262 264 265 265 263 261 260 260 260 260 260 261 262 262 262 264 266 264 260 259 258 259 264 268 278 290 298 303 309 313 316 317 320
270 269 265 260 258 252 248 247 251 255 260 265 265 265 265 265 264 262 261 261 261 262 263 263 263 265 267 269 270 272 274 278 281 285 291 296 302 306 308 308 310 310 312
268 270 266 261 260 254 248 246 248 252 257 262 263 262 262 264 265 264 262 262 262 263 264 264 265 266 267 270 273 276 278 279 282 286 289 291 295 297 299 299 299 300 301
266 269 269 266 261 255 249 246 246 249 254 260 262 264 266 267 267 267 267 265 264 263 263 265 266 267 269 272 273 274 277 280 282 284 286 288 290 292 293 293 294 298 300
266 266 270 263 257 249 247 246 246 246 251 256 259 263 266 270 272 270 269 267 265 264 264 265 267 268 270 272 273 274 274 276 278 281 284 286 288 291 293 294 297 298 299
265 265 261 260 256 249 246 247 246 245 247 252 256 259 265 270 274 276 273 270 267 266 265 266 267 269 271 273 274 274 275 277 279 280 282 284 287 290 292 293 295 296 293
260 258 255 255 255 252 248 248 247 246 246 249 253 256 259 265 271 276 276 274 271 268 266 267 268 269 271 274 275 276 277 277 278 280 281 282 284 286 287 289 291 292 293
263 255 256 257 255 252 250 248 248 246 244 247 252 254 256 261 267 272 275 274 272 270 270 269 270 271 274 276 276 276 276 277 279 279 279 280 282 284 286 287 287 286 287
264 261 257 253 254 253 253 252 249 247 243 245 249 251 254 259 265 271 277 279 274 270 269 270 272 274 276 277 277 277 277 278 279 279 280 282 284 285 285 285 285 285 285
262 262 260 257 256 255 253 254 252 248 244 245 247 248 255 261 266 272 277 278 275 272 270 272 272 274 275 275 276 275 275 278 279 282 284 284 284 283 283 283 283 284 285
266 263 259 256 256 256 255 254 254 251 249 248 249 252 259 266 271 278 280 278 273 270 268 269 271 272 274 275 276 278 280 281 282 283 282 282 282 283 283 284 284 284 286
275 272 265 260 258 256 256 256 254 254 251 251 253 258 263 269 275 277 273 271 269 268 268 268 270 271 272 274 276 278 280 279 279 278 277 279 280 282 282 282 283 285 285
281 279 276 270 263 261 261 260 257 256 255 257 260 264 269 273 272 269 267 267 268 268 268 267 265 267 270 273 276 277 277 276 276 277 278 279 279 279 280 282 284 285 286
280 282 282 279 276 270 264 263 263 262 261 262 264 266 268 270 271 270 269 267 266 266 265 264 267 270 273 276 274 274 274 276 277 277 279 280 282 283 284 285 286 287 287
275 276 275 275 275 273 270 267 265 264 264 265 265 266 268 269 271 270 271 270 269 268 269 272 276 276 275 274 273 275 276 277 278 279 280 282 283 284 285 284 285 285 285
276 276 276 277 277 275 273 272 271 271 272 272 270 270 270 269 269 268 269 272 273 273 273 274 274 272 273 275 275 275 276 277 279 280 281 283 285 286 286 287 288 287 287
277 278 281 280 280 281 281 278 277 275 272 270 269 268 268 268 269 269 269 269 268 269 269 270 270 271 271 272 273 274 276 277 279 279 281 282 282 284 286 287 287 288 288
279 281 280 277 275 273 270 269 269 269 269 269 269 270 270 269 270 269 269 269 269 269 270 270 270 271 271 271 272 273 275 276 278 281 283 284 284 285 286 287 287 286 285
274 272 269 269 269 269 268 266 265 267 270 271 271 270 269 269 268 268 268 268 269 270 270 271 271 271 272 273 274 276 278 280 282 282 283 284 286 286 286 285 284 283 283
264 266 266 267 268 267 266 267 269 272 274 273 272 271 270 269 267 266 265 266 268 268 268 268 268 270 271 273 274 276 278 280 282 283 285 286 286 286 286 285 284 284 284
267 268 268 270 271 272 270 270 271 273 273 272 271 271 269 265 263 262 263 264 265 265 266 267 268 270 272 274 276 279 282 283 285 286 286 286 285 285 285 286 287 289 290
268 268 268 269 269 270 271 272 272 272 271 270 267 265 263 262 261 262 263 265 266 267 268 268 270 272 275 278 280 282 284 285 286 285 284 283 283 283 286 288 289 290 291
269 270 271 271 271 271 272 273 272 269 267 264 263 262 263 263 263 265 264 263 263 265 267 270 272 274 277 280 282 284 285 285 282 278 277 277 278 283 286 286 287 287 289
270 271 272 272 273 272 271 270 268 266 265 263 261 259 260 261 262 262 264 266 269 271 273 276 278 280 283 284 285 285 282 278 275 275 277 277 279 283 286 286 286 285 287
270 271 270 269 269 268 267 266 264 263 260 258 256 257 257 259 262 264 266 268 270 273 276 278 281 283 284 284 282 279 275 273 276 275 276 279 284 287 288 286 285 285 285
269 269 268 267 267 267 265 263 261 258 256 256 258 260 262 264 266 268 270 274 277 279 281 282 283 282 282 281 279 276 273 273 274 275 278 281 284 286 286 287 284 282 282